Year,Month,Day,Hour,Minute,Value (Times are PST for temperature in C)
2017,06,26,00,00,18.40
2017,06,26,00,01,18.40
2017,06,26,00,02,18.40
2017,06,26,00,03,18.40
2017,06,26,00,04,18.40
2017,06,26,00,05,18.40
2017,06,26,00,06,18.40
2017,06,26,00,07,18.40
2017,06,26,00,08,18.40
2017,06,26,00,09,18.40
2017,06,26,00,10,18.40
2017,06,26,00,11,18.40
2017,06,26,00,12,18.40
2017,06,26,00,13,18.40
2017,06,26,00,14,18.40
2017,06,26,00,15,18.40
2017,06,26,00,16,18.40
2017,06,26,00,17,18.40
2017,06,26,00,18,18.40
2017,06,26,00,19,18.40
2017,06,26,00,20,18.40
2017,06,26,00,21,18.40
2017,06,26,00,22,18.40
2017,06,26,00,23,18.40
2017,06,26,00,24,18.40
2017,06,26,00,25,18.40
2017,06,26,00,26,18.40
2017,06,26,00,27,18.40
2017,06,26,00,28,18.40
2017,06,26,00,29,18.40
2017,06,26,00,30,18.40
2017,06,26,00,31,18.50
2017,06,26,00,32,18.50
2017,06,26,00,33,18.50
2017,06,26,00,34,18.40
2017,06,26,00,35,18.40
2017,06,26,00,36,18.40
2017,06,26,00,37,18.40
2017,06,26,00,38,18.40
2017,06,26,00,39,18.40
2017,06,26,00,40,18.40
2017,06,26,00,41,18.40
2017,06,26,00,42,18.40
2017,06,26,00,43,18.40
2017,06,26,00,44,18.40
2017,06,26,00,45,18.40
2017,06,26,00,46,18.40
2017,06,26,00,47,18.30
2017,06,26,00,48,18.30
2017,06,26,00,49,18.30
2017,06,26,00,50,18.30
2017,06,26,00,51,18.30
2017,06,26,00,52,18.40
2017,06,26,00,53,18.40
2017,06,26,00,54,18.40
2017,06,26,00,55,18.40
2017,06,26,00,56,18.40
2017,06,26,00,57,18.40
2017,06,26,00,58,18.50
2017,06,26,00,59,18.50
2017,06,26,01,00,18.50
2017,06,26,01,01,18.60
2017,06,26,01,02,18.60
2017,06,26,01,03,18.60
2017,06,26,01,04,18.60
2017,06,26,01,05,18.60
2017,06,26,01,06,18.70
2017,06,26,01,07,18.70
2017,06,26,01,08,18.70
2017,06,26,01,09,18.70
2017,06,26,01,10,18.70
2017,06,26,01,11,18.70
2017,06,26,01,12,18.70
2017,06,26,01,13,18.70
2017,06,26,01,14,18.70
2017,06,26,01,15,18.80
2017,06,26,01,16,18.80
2017,06,26,01,17,18.80
2017,06,26,01,18,18.90
2017,06,26,01,19,18.90
2017,06,26,01,20,18.90
2017,06,26,01,21,19.00
2017,06,26,01,22,19.10
2017,06,26,01,23,19.10
2017,06,26,01,24,19.20
2017,06,26,01,25,19.20
2017,06,26,01,26,19.30
2017,06,26,01,27,19.40
2017,06,26,01,28,19.50
2017,06,26,01,29,19.70
2017,06,26,01,30,19.80
2017,06,26,01,31,20.00
2017,06,26,01,32,20.20
2017,06,26,01,33,20.30
2017,06,26,01,34,20.50
2017,06,26,01,35,20.60
2017,06,26,01,36,20.70
2017,06,26,01,37,20.80
2017,06,26,01,38,20.90
2017,06,26,01,39,21.00
2017,06,26,01,40,21.10
2017,06,26,01,41,21.10
2017,06,26,01,42,21.20
2017,06,26,01,43,21.20
2017,06,26,01,44,21.20
2017,06,26,01,45,21.30
2017,06,26,01,46,21.30
2017,06,26,01,47,21.30
2017,06,26,01,48,21.40
2017,06,26,01,49,21.40
2017,06,26,01,50,21.50
2017,06,26,01,51,21.50
2017,06,26,01,52,21.50
2017,06,26,01,53,21.60
2017,06,26,01,54,21.70
2017,06,26,01,55,21.70
2017,06,26,01,56,21.80
2017,06,26,01,57,21.80
2017,06,26,01,58,21.90
2017,06,26,01,59,21.90
2017,06,26,02,00,21.90
2017,06,26,02,01,22.00
2017,06,26,02,02,22.00
2017,06,26,02,03,22.00
2017,06,26,02,04,22.10
2017,06,26,02,05,22.10
2017,06,26,02,06,22.10
2017,06,26,02,07,22.10
2017,06,26,02,08,22.10
2017,06,26,02,09,22.10
2017,06,26,02,10,22.10
2017,06,26,02,11,22.10
2017,06,26,02,12,22.10
2017,06,26,02,13,22.20
2017,06,26,02,14,22.20
2017,06,26,02,15,22.30
2017,06,26,02,16,22.40
2017,06,26,02,17,22.40
2017,06,26,02,18,22.40
2017,06,26,02,19,22.50
2017,06,26,02,20,22.50
2017,06,26,02,21,22.60
2017,06,26,02,22,22.60
2017,06,26,02,23,22.60
2017,06,26,02,24,22.60
2017,06,26,02,25,22.50
2017,06,26,02,26,22.50
2017,06,26,02,27,22.40
2017,06,26,02,28,22.30
2017,06,26,02,29,22.30
2017,06,26,02,30,22.20
2017,06,26,02,31,22.10
2017,06,26,02,32,22.00
2017,06,26,02,33,21.90
2017,06,26,02,34,21.80
2017,06,26,02,35,21.70
2017,06,26,02,36,21.50
2017,06,26,02,37,21.40
2017,06,26,02,38,21.30
2017,06,26,02,39,21.20
2017,06,26,02,40,21.10
2017,06,26,02,41,21.00
2017,06,26,02,42,20.90
2017,06,26,02,43,20.80
2017,06,26,02,44,20.70
2017,06,26,02,45,20.60
2017,06,26,02,46,20.50
2017,06,26,02,47,20.40
2017,06,26,02,48,20.30
2017,06,26,02,49,20.20
2017,06,26,02,50,20.10
2017,06,26,02,51,20.10
2017,06,26,02,52,20.00
2017,06,26,02,53,19.90
2017,06,26,02,54,19.90
2017,06,26,02,55,19.80
2017,06,26,02,56,19.80
2017,06,26,02,57,19.80
2017,06,26,02,58,19.80
2017,06,26,02,59,19.70
2017,06,26,03,00,19.70
2017,06,26,03,01,19.70
2017,06,26,03,02,19.60
2017,06,26,03,03,19.60
2017,06,26,03,04,19.50
2017,06,26,03,05,19.50
2017,06,26,03,06,19.40
2017,06,26,03,07,19.40
2017,06,26,03,08,19.30
2017,06,26,03,09,19.30
2017,06,26,03,10,19.30
2017,06,26,03,11,19.20
2017,06,26,03,12,19.20
2017,06,26,03,13,19.20
2017,06,26,03,14,19.20
2017,06,26,03,15,19.20
2017,06,26,03,16,19.20
2017,06,26,03,17,19.20
2017,06,26,03,18,19.10
2017,06,26,03,19,19.10
2017,06,26,03,20,19.00
2017,06,26,03,21,19.00
2017,06,26,03,22,18.90
2017,06,26,03,23,18.80
2017,06,26,03,24,18.60
2017,06,26,03,25,18.40
2017,06,26,03,26,18.30
2017,06,26,03,27,18.10
2017,06,26,03,28,17.90
2017,06,26,03,29,17.70
2017,06,26,03,30,17.60
2017,06,26,03,31,17.40
2017,06,26,03,32,17.30
2017,06,26,03,33,17.10
2017,06,26,03,34,17.00
2017,06,26,03,35,16.90
2017,06,26,03,36,16.80
2017,06,26,03,37,16.70
2017,06,26,03,38,16.60
2017,06,26,03,39,16.60
2017,06,26,03,40,16.50
2017,06,26,03,41,16.40
2017,06,26,03,42,16.40
2017,06,26,03,43,16.40
2017,06,26,03,44,16.30
2017,06,26,03,45,16.30
2017,06,26,03,46,16.30
2017,06,26,03,47,16.30
2017,06,26,03,48,16.30
2017,06,26,03,49,16.30
2017,06,26,03,50,16.20
2017,06,26,03,51,16.20
2017,06,26,03,52,16.20
2017,06,26,03,53,16.20
2017,06,26,03,54,16.20
2017,06,26,03,55,16.10
2017,06,26,03,56,16.10
2017,06,26,03,57,16.10
2017,06,26,03,58,16.00
2017,06,26,03,59,16.00
2017,06,26,04,00,15.90
2017,06,26,04,01,15.90
2017,06,26,04,02,15.90
2017,06,26,04,03,15.90
2017,06,26,04,04,15.80
2017,06,26,04,05,15.80
2017,06,26,04,06,15.90
2017,06,26,04,07,15.90
2017,06,26,04,08,15.90
2017,06,26,04,09,15.90
2017,06,26,04,10,16.00
2017,06,26,04,11,16.00
2017,06,26,04,12,16.10
2017,06,26,04,13,16.10
2017,06,26,04,14,16.20
2017,06,26,04,15,16.20
2017,06,26,04,16,16.20
2017,06,26,04,17,16.20
2017,06,26,04,18,16.20
2017,06,26,04,19,16.20
2017,06,26,04,20,16.20
2017,06,26,04,21,16.20
2017,06,26,04,22,16.10
2017,06,26,04,23,16.10
2017,06,26,04,24,16.10
2017,06,26,04,25,16.00
2017,06,26,04,26,16.00
2017,06,26,04,27,15.90
2017,06,26,04,28,15.90
2017,06,26,04,29,15.90
2017,06,26,04,30,15.80
2017,06,26,04,31,15.80
2017,06,26,04,32,15.80
2017,06,26,04,33,15.80
2017,06,26,04,34,15.80
2017,06,26,04,35,15.70
2017,06,26,04,36,15.70
2017,06,26,04,37,15.70
2017,06,26,04,38,15.70
2017,06,26,04,39,15.70
2017,06,26,04,40,15.80
2017,06,26,04,41,15.80
2017,06,26,04,42,15.80
2017,06,26,04,43,15.90
2017,06,26,04,44,15.90
2017,06,26,04,45,16.00
2017,06,26,04,46,16.10
2017,06,26,04,47,16.10
2017,06,26,04,48,16.20
2017,06,26,04,49,16.20
2017,06,26,04,50,16.30
2017,06,26,04,51,16.30
2017,06,26,04,52,16.30
2017,06,26,04,53,16.30
2017,06,26,04,54,16.30
2017,06,26,04,55,16.40
2017,06,26,04,56,16.40
2017,06,26,04,57,16.40
2017,06,26,04,58,16.40
2017,06,26,04,59,16.40
2017,06,26,05,00,16.40
2017,06,26,05,01,16.40
2017,06,26,05,02,16.40
2017,06,26,05,03,16.40
2017,06,26,05,04,16.40
2017,06,26,05,05,16.40
2017,06,26,05,06,16.30
2017,06,26,05,07,16.30
2017,06,26,05,08,16.30
2017,06,26,05,09,16.30
2017,06,26,05,10,16.20
2017,06,26,05,11,16.10
2017,06,26,05,12,16.10
2017,06,26,05,13,16.00
2017,06,26,05,14,15.90
2017,06,26,05,15,15.80
2017,06,26,05,16,15.80
2017,06,26,05,17,15.70
2017,06,26,05,18,15.70
2017,06,26,05,19,15.60
2017,06,26,05,20,15.50
2017,06,26,05,21,15.50
2017,06,26,05,22,15.40
2017,06,26,05,23,15.30
2017,06,26,05,24,15.30
2017,06,26,05,25,15.30
2017,06,26,05,26,15.20
2017,06,26,05,27,15.20
2017,06,26,05,28,15.20
2017,06,26,05,29,15.10
2017,06,26,05,30,15.10
2017,06,26,05,31,15.10
2017,06,26,05,32,15.00
2017,06,26,05,33,15.00
2017,06,26,05,34,14.90
2017,06,26,05,35,14.90
2017,06,26,05,36,14.90
2017,06,26,05,37,14.90
2017,06,26,05,38,14.80
2017,06,26,05,39,14.80
2017,06,26,05,40,14.80
2017,06,26,05,41,14.80
2017,06,26,05,42,14.80
2017,06,26,05,43,14.80
2017,06,26,05,44,14.70
2017,06,26,05,45,14.70
2017,06,26,05,46,14.70
2017,06,26,05,47,14.70
2017,06,26,05,48,14.70
2017,06,26,05,49,14.70
2017,06,26,05,50,14.70
2017,06,26,05,51,14.70
2017,06,26,05,52,14.70
2017,06,26,05,53,14.70
2017,06,26,05,54,14.70
2017,06,26,05,55,14.70
2017,06,26,05,56,14.70
2017,06,26,05,57,14.60
2017,06,26,05,58,14.60
2017,06,26,05,59,14.60
2017,06,26,06,00,14.60
2017,06,26,06,01,14.60
2017,06,26,06,02,14.60
2017,06,26,06,03,14.60
2017,06,26,06,04,14.60
2017,06,26,06,05,14.60
2017,06,26,06,06,14.60
2017,06,26,06,07,14.60
2017,06,26,06,08,14.60
2017,06,26,06,09,14.60
2017,06,26,06,10,14.60
2017,06,26,06,11,14.60
2017,06,26,06,12,14.60
2017,06,26,06,13,14.60
2017,06,26,06,14,14.60
2017,06,26,06,15,14.50
2017,06,26,06,16,14.60
2017,06,26,06,17,14.60
2017,06,26,06,18,14.60
2017,06,26,06,19,14.60
2017,06,26,06,20,14.60
2017,06,26,06,21,14.60
2017,06,26,06,22,14.60
2017,06,26,06,23,14.60
2017,06,26,06,24,14.60
2017,06,26,06,25,14.60
2017,06,26,06,26,14.60
2017,06,26,06,27,14.60
2017,06,26,06,28,14.50
2017,06,26,06,29,14.50
2017,06,26,06,30,14.40
2017,06,26,06,31,14.30
2017,06,26,06,32,14.30
2017,06,26,06,33,14.20
2017,06,26,06,34,14.20
2017,06,26,06,35,14.10
2017,06,26,06,36,14.10
2017,06,26,06,37,14.00
2017,06,26,06,38,14.00
2017,06,26,06,39,13.90
2017,06,26,06,40,13.90
2017,06,26,06,41,13.80
2017,06,26,06,42,13.80
2017,06,26,06,43,13.70
2017,06,26,06,44,13.70
2017,06,26,06,45,13.70
2017,06,26,06,46,13.70
2017,06,26,06,47,13.70
2017,06,26,06,48,13.70
2017,06,26,06,49,13.60
2017,06,26,06,50,13.60
2017,06,26,06,51,13.60
2017,06,26,06,52,13.70
2017,06,26,06,53,13.70
2017,06,26,06,54,13.70
2017,06,26,06,55,13.70
2017,06,26,06,56,13.70
2017,06,26,06,57,13.70
2017,06,26,06,58,13.70
2017,06,26,06,59,13.80
2017,06,26,07,00,13.80
2017,06,26,07,01,13.80
2017,06,26,07,02,13.90
2017,06,26,07,03,13.90
2017,06,26,07,04,13.90
2017,06,26,07,05,13.90
2017,06,26,07,06,14.00
2017,06,26,07,07,14.10
2017,06,26,07,08,14.10
2017,06,26,07,09,14.10
2017,06,26,07,10,14.20
2017,06,26,07,11,14.20
2017,06,26,07,12,14.30
2017,06,26,07,13,14.30
2017,06,26,07,14,14.40
2017,06,26,07,15,14.40
2017,06,26,07,16,14.50
2017,06,26,07,17,14.60
2017,06,26,07,18,14.60
2017,06,26,07,19,14.60
2017,06,26,07,20,14.70
2017,06,26,07,21,14.70
2017,06,26,07,22,14.70
2017,06,26,07,23,14.80
2017,06,26,07,24,14.80
2017,06,26,07,25,14.80
2017,06,26,07,26,14.90
2017,06,26,07,27,14.90
2017,06,26,07,28,14.90
2017,06,26,07,29,15.00
2017,06,26,07,30,15.10
2017,06,26,07,31,15.10
2017,06,26,07,32,15.20
2017,06,26,07,33,15.20
2017,06,26,07,34,15.20
2017,06,26,07,35,15.30
2017,06,26,07,36,15.30
2017,06,26,07,37,15.30
2017,06,26,07,38,15.30
2017,06,26,07,39,15.20
2017,06,26,07,40,15.10
2017,06,26,07,41,15.10
2017,06,26,07,42,15.00
2017,06,26,07,43,15.00
2017,06,26,07,44,14.90
2017,06,26,07,45,14.80
2017,06,26,07,46,14.80
2017,06,26,07,47,14.70
2017,06,26,07,48,14.70
2017,06,26,07,49,14.60
2017,06,26,07,50,14.60
2017,06,26,07,51,14.60
2017,06,26,07,52,14.60
2017,06,26,07,53,14.60
2017,06,26,07,54,14.60
2017,06,26,07,55,14.60
2017,06,26,07,56,14.60
2017,06,26,07,57,14.60
2017,06,26,07,58,14.60
2017,06,26,07,59,14.60
2017,06,26,08,00,14.60
2017,06,26,08,01,14.60
2017,06,26,08,02,14.60
2017,06,26,08,03,14.50
2017,06,26,08,04,14.50
2017,06,26,08,05,14.50
2017,06,26,08,06,14.50
2017,06,26,08,07,14.40
2017,06,26,08,08,14.40
2017,06,26,08,09,14.40
2017,06,26,08,10,14.40
2017,06,26,08,11,14.30
2017,06,26,08,12,14.30
2017,06,26,08,13,14.20
2017,06,26,08,14,14.20
2017,06,26,08,15,14.10
2017,06,26,08,16,14.10
2017,06,26,08,17,14.00
2017,06,26,08,18,14.00
2017,06,26,08,19,13.90
2017,06,26,08,20,13.90
2017,06,26,08,21,13.90
2017,06,26,08,22,13.90
2017,06,26,08,23,13.90
2017,06,26,08,24,13.90
2017,06,26,08,25,13.90
2017,06,26,08,26,13.90
2017,06,26,08,27,13.90
2017,06,26,08,28,13.90
2017,06,26,08,29,13.90
2017,06,26,08,30,13.90
2017,06,26,08,31,13.90
2017,06,26,08,32,14.00
2017,06,26,08,33,14.00
2017,06,26,08,34,14.00
2017,06,26,08,35,14.00
2017,06,26,08,36,14.00
2017,06,26,08,37,14.00
2017,06,26,08,38,14.00
2017,06,26,08,39,13.90
2017,06,26,08,40,13.90
2017,06,26,08,41,13.90
2017,06,26,08,42,13.90
2017,06,26,08,43,13.90
2017,06,26,08,44,13.90
2017,06,26,08,45,13.90
2017,06,26,08,46,13.90
2017,06,26,08,47,13.90
2017,06,26,08,48,14.00
2017,06,26,08,49,14.00
2017,06,26,08,50,14.00
2017,06,26,08,51,14.10
2017,06,26,08,52,14.10
2017,06,26,08,53,14.20
2017,06,26,08,54,14.20
2017,06,26,08,55,14.30
2017,06,26,08,56,14.30
2017,06,26,08,57,14.40
2017,06,26,08,58,14.50
2017,06,26,08,59,14.60
2017,06,26,09,00,14.60
2017,06,26,09,01,14.70
2017,06,26,09,02,14.70
2017,06,26,09,03,14.70
2017,06,26,09,04,14.80
2017,06,26,09,05,14.80
2017,06,26,09,06,14.80
2017,06,26,09,07,14.90
2017,06,26,09,08,14.90
2017,06,26,09,09,15.00
2017,06,26,09,10,15.00
2017,06,26,09,11,15.00
2017,06,26,09,12,15.00
2017,06,26,09,13,15.00
2017,06,26,09,14,14.90
2017,06,26,09,15,14.90
2017,06,26,09,16,14.80
2017,06,26,09,17,14.70
2017,06,26,09,18,14.70
2017,06,26,09,19,14.60
2017,06,26,09,20,14.50
2017,06,26,09,21,14.40
2017,06,26,09,22,14.30
2017,06,26,09,23,14.30
2017,06,26,09,24,14.20
2017,06,26,09,25,14.20
2017,06,26,09,26,14.10
2017,06,26,09,27,14.10
2017,06,26,09,28,14.00
2017,06,26,09,29,14.00
2017,06,26,09,30,13.90
2017,06,26,09,31,13.90
2017,06,26,09,32,13.90
2017,06,26,09,33,13.90
2017,06,26,09,34,13.90
2017,06,26,09,35,13.90
2017,06,26,09,36,13.90
2017,06,26,09,37,14.00
2017,06,26,09,38,14.00
2017,06,26,09,39,14.10
2017,06,26,09,40,14.10
2017,06,26,09,41,14.20
2017,06,26,09,42,14.30
2017,06,26,09,43,14.40
2017,06,26,09,44,14.50
2017,06,26,09,45,14.50
2017,06,26,09,46,14.60
2017,06,26,09,47,14.70
2017,06,26,09,48,14.80
2017,06,26,09,49,14.80
2017,06,26,09,50,14.90
2017,06,26,09,51,14.90
2017,06,26,09,52,14.90
2017,06,26,09,53,14.90
2017,06,26,09,54,14.90
2017,06,26,09,55,14.90
2017,06,26,09,56,14.90
2017,06,26,09,57,14.90
2017,06,26,09,58,14.80
2017,06,26,09,59,14.80
2017,06,26,10,00,14.80
2017,06,26,10,01,14.80
2017,06,26,10,02,14.70
2017,06,26,10,03,14.70
2017,06,26,10,04,14.70
2017,06,26,10,05,14.70
2017,06,26,10,06,14.80
2017,06,26,10,07,14.80
2017,06,26,10,08,14.80
2017,06,26,10,09,14.90
2017,06,26,10,10,14.90
2017,06,26,10,11,14.90
2017,06,26,10,12,14.90
2017,06,26,10,13,14.90
2017,06,26,10,14,14.90
2017,06,26,10,15,14.80
2017,06,26,10,16,14.80
2017,06,26,10,17,14.70
2017,06,26,10,18,14.70
2017,06,26,10,19,14.60
2017,06,26,10,20,14.60
2017,06,26,10,21,14.50
2017,06,26,10,22,14.40
2017,06,26,10,23,14.30
2017,06,26,10,24,14.30
2017,06,26,10,25,14.30
2017,06,26,10,26,14.30
2017,06,26,10,27,14.30
2017,06,26,10,28,14.30
2017,06,26,10,29,14.20
2017,06,26,10,30,14.20
2017,06,26,10,31,14.20
2017,06,26,10,32,14.20
2017,06,26,10,33,14.20
2017,06,26,10,34,14.20
2017,06,26,10,35,14.20
2017,06,26,10,36,14.20
2017,06,26,10,37,14.30
2017,06,26,10,38,14.30
2017,06,26,10,39,14.40
2017,06,26,10,40,14.40
2017,06,26,10,41,14.40
2017,06,26,10,42,14.50
2017,06,26,10,43,14.50
2017,06,26,10,44,14.60
2017,06,26,10,45,14.60
2017,06,26,10,46,14.60
2017,06,26,10,47,14.60
2017,06,26,10,48,14.60
2017,06,26,10,49,14.60
2017,06,26,10,50,14.70
2017,06,26,10,51,14.70
2017,06,26,10,52,14.70
2017,06,26,10,53,14.60
2017,06,26,10,54,14.60
2017,06,26,10,55,14.60
2017,06,26,10,56,14.60
2017,06,26,10,57,14.60
2017,06,26,10,58,14.60
2017,06,26,10,59,14.60
2017,06,26,11,00,14.60
2017,06,26,11,01,14.70
2017,06,26,11,02,14.70
2017,06,26,11,03,14.70
2017,06,26,11,04,14.70
2017,06,26,11,05,14.70
2017,06,26,11,06,14.70
2017,06,26,11,07,14.80
2017,06,26,11,08,14.80
2017,06,26,11,09,14.80
2017,06,26,11,10,14.80
2017,06,26,11,11,14.70
2017,06,26,11,12,14.70
2017,06,26,11,13,14.70
2017,06,26,11,14,14.70
2017,06,26,11,15,14.70
2017,06,26,11,16,14.70
2017,06,26,11,17,14.70
2017,06,26,11,18,14.70
2017,06,26,11,19,14.70
2017,06,26,11,20,14.80
2017,06,26,11,21,14.80
2017,06,26,11,22,14.80
2017,06,26,11,23,14.80
2017,06,26,11,24,14.80
2017,06,26,11,25,14.90
2017,06,26,11,26,14.90
2017,06,26,11,27,14.80
2017,06,26,11,28,14.80
2017,06,26,11,29,14.80
2017,06,26,11,30,14.80
2017,06,26,11,31,14.80
2017,06,26,11,32,14.70
2017,06,26,11,33,14.70
2017,06,26,11,34,14.60
2017,06,26,11,35,14.60
2017,06,26,11,36,14.50
2017,06,26,11,37,14.40
2017,06,26,11,38,14.40
2017,06,26,11,39,14.30
2017,06,26,11,40,14.30
2017,06,26,11,41,14.30
2017,06,26,11,42,14.30
2017,06,26,11,43,14.30
2017,06,26,11,44,14.40
2017,06,26,11,45,14.40
2017,06,26,11,46,14.40
2017,06,26,11,47,14.50
2017,06,26,11,48,14.50
2017,06,26,11,49,14.50
2017,06,26,11,50,14.50
2017,06,26,11,51,14.50
2017,06,26,11,52,14.40
2017,06,26,11,53,14.40
2017,06,26,11,54,14.40
2017,06,26,11,55,14.40
2017,06,26,11,56,14.40
2017,06,26,11,57,14.50
2017,06,26,11,58,14.50
2017,06,26,11,59,14.60
2017,06,26,12,00,14.70
2017,06,26,12,01,14.80
2017,06,26,12,02,14.80
2017,06,26,12,03,14.90
2017,06,26,12,04,14.90
2017,06,26,12,05,14.90
2017,06,26,12,06,14.90
2017,06,26,12,07,14.90
2017,06,26,12,08,14.90
2017,06,26,12,09,14.90
2017,06,26,12,10,14.90
2017,06,26,12,11,14.90
2017,06,26,12,12,14.90
2017,06,26,12,13,14.90
2017,06,26,12,14,14.90
2017,06,26,12,15,14.90
2017,06,26,12,16,14.90
2017,06,26,12,17,14.90
2017,06,26,12,18,15.00
2017,06,26,12,19,15.00
2017,06,26,12,20,15.10
2017,06,26,12,21,15.10
2017,06,26,12,22,15.10
2017,06,26,12,23,15.20
2017,06,26,12,24,15.20
2017,06,26,12,25,15.30
2017,06,26,12,26,15.30
2017,06,26,12,27,15.20
2017,06,26,12,28,15.20
2017,06,26,12,29,15.10
2017,06,26,12,30,15.10
2017,06,26,12,31,15.00
2017,06,26,12,32,14.90
2017,06,26,12,33,14.90
2017,06,26,12,34,14.90
2017,06,26,12,35,14.90
2017,06,26,12,36,15.00
2017,06,26,12,37,15.00
2017,06,26,12,38,15.10
2017,06,26,12,39,15.20
2017,06,26,12,40,15.20
2017,06,26,12,41,15.30
2017,06,26,12,42,15.30
2017,06,26,12,43,15.40
2017,06,26,12,44,15.40
2017,06,26,12,45,15.50
2017,06,26,12,46,15.60
2017,06,26,12,47,15.70
2017,06,26,12,48,15.70
2017,06,26,12,49,15.70
2017,06,26,12,50,15.70
2017,06,26,12,51,15.70
2017,06,26,12,52,15.70
2017,06,26,12,53,15.70
2017,06,26,12,54,15.70
2017,06,26,12,55,15.70
2017,06,26,12,56,15.80
2017,06,26,12,57,15.80
2017,06,26,12,58,15.80
2017,06,26,12,59,15.80
2017,06,26,13,00,15.80
2017,06,26,13,01,15.80
2017,06,26,13,02,15.90
2017,06,26,13,03,15.90
2017,06,26,13,04,15.90
2017,06,26,13,05,16.00
2017,06,26,13,06,16.00
2017,06,26,13,07,16.00
2017,06,26,13,08,16.00
2017,06,26,13,09,15.90
2017,06,26,13,10,15.90
2017,06,26,13,11,15.90
2017,06,26,13,12,15.90
2017,06,26,13,13,15.80
2017,06,26,13,14,15.80
2017,06,26,13,15,15.80
2017,06,26,13,16,15.70
2017,06,26,13,17,15.70
2017,06,26,13,18,15.70
2017,06,26,13,19,15.70
2017,06,26,13,20,15.60
2017,06,26,13,21,15.60
2017,06,26,13,22,15.60
2017,06,26,13,23,15.60
2017,06,26,13,24,15.60
2017,06,26,13,25,15.60
2017,06,26,13,26,15.60
2017,06,26,13,27,15.60
2017,06,26,13,28,15.50
2017,06,26,13,29,15.50
2017,06,26,13,30,15.50
2017,06,26,13,31,15.60
2017,06,26,13,32,15.60
2017,06,26,13,33,15.70
2017,06,26,13,34,15.70
2017,06,26,13,35,15.70
2017,06,26,13,36,15.70
2017,06,26,13,37,15.60
2017,06,26,13,38,15.60
2017,06,26,13,39,15.50
2017,06,26,13,40,15.50
2017,06,26,13,41,15.40
2017,06,26,13,42,15.40
2017,06,26,13,43,15.40
2017,06,26,13,44,15.40
2017,06,26,13,45,15.30
2017,06,26,13,46,15.30
2017,06,26,13,47,15.30
2017,06,26,13,48,15.30
2017,06,26,13,49,15.30
2017,06,26,13,50,15.40
2017,06,26,13,51,15.40
2017,06,26,13,52,15.50
2017,06,26,13,53,15.50
2017,06,26,13,54,15.50
2017,06,26,13,55,15.60
2017,06,26,13,56,15.60
2017,06,26,13,57,15.60
2017,06,26,13,58,15.60
2017,06,26,13,59,15.60
2017,06,26,14,00,15.60
2017,06,26,14,01,15.60
2017,06,26,14,02,15.70
2017,06,26,14,03,15.70
2017,06,26,14,04,15.70
2017,06,26,14,05,15.70
2017,06,26,14,06,15.80
2017,06,26,14,07,15.80
2017,06,26,14,08,15.90
2017,06,26,14,09,15.90
2017,06,26,14,10,16.00
2017,06,26,14,11,16.10
2017,06,26,14,12,16.10
2017,06,26,14,13,16.10
2017,06,26,14,14,16.20
2017,06,26,14,15,16.30
2017,06,26,14,16,16.30
2017,06,26,14,17,16.40
2017,06,26,14,18,16.50
2017,06,26,14,19,16.50
2017,06,26,14,20,16.60
2017,06,26,14,21,16.70
2017,06,26,14,22,16.90
2017,06,26,14,23,17.00
2017,06,26,14,24,17.20
2017,06,26,14,25,17.30
2017,06,26,14,26,17.50
2017,06,26,14,27,17.70
2017,06,26,14,28,17.80
2017,06,26,14,29,17.90
2017,06,26,14,30,18.10
2017,06,26,14,31,18.20
2017,06,26,14,32,18.30
2017,06,26,14,33,18.40
2017,06,26,14,34,18.50
2017,06,26,14,35,18.70
2017,06,26,14,36,18.90
2017,06,26,14,37,19.00
2017,06,26,14,38,19.20
2017,06,26,14,39,19.40
2017,06,26,14,40,19.60
2017,06,26,14,41,19.80
2017,06,26,14,42,20.00
2017,06,26,14,43,20.20
2017,06,26,14,44,20.40
2017,06,26,14,45,20.50
2017,06,26,14,46,20.60
2017,06,26,14,47,20.70
2017,06,26,14,48,20.80
2017,06,26,14,49,20.90
2017,06,26,14,50,21.00
2017,06,26,14,51,21.10
2017,06,26,14,52,21.20
2017,06,26,14,53,21.30
2017,06,26,14,54,21.40
2017,06,26,14,55,21.40
2017,06,26,14,56,21.50
2017,06,26,14,57,21.60
2017,06,26,14,58,21.70
2017,06,26,14,59,21.70
2017,06,26,15,00,21.70
2017,06,26,15,01,21.70
2017,06,26,15,02,21.70
2017,06,26,15,03,21.70
2017,06,26,15,04,21.70
2017,06,26,15,05,21.70
2017,06,26,15,06,21.70
2017,06,26,15,07,21.60
2017,06,26,15,08,21.50
2017,06,26,15,09,21.50
2017,06,26,15,10,21.40
2017,06,26,15,11,21.40
2017,06,26,15,12,21.30
2017,06,26,15,13,21.20
2017,06,26,15,14,21.00
2017,06,26,15,15,20.90
2017,06,26,15,16,20.80
2017,06,26,15,17,20.70
2017,06,26,15,18,20.60
2017,06,26,15,19,20.50
2017,06,26,15,20,20.40
2017,06,26,15,21,20.30
2017,06,26,15,22,20.30
2017,06,26,15,23,20.30
2017,06,26,15,24,20.20
2017,06,26,15,25,20.30
2017,06,26,15,26,20.30
2017,06,26,15,27,20.30
2017,06,26,15,28,20.40
2017,06,26,15,29,20.60
2017,06,26,15,30,20.70
2017,06,26,15,31,20.90
2017,06,26,15,32,21.10
2017,06,26,15,33,21.30
2017,06,26,15,34,21.50
2017,06,26,15,35,21.70
2017,06,26,15,36,21.90
2017,06,26,15,37,22.10
2017,06,26,15,38,22.30
2017,06,26,15,39,22.40
2017,06,26,15,40,22.50
2017,06,26,15,41,22.60
2017,06,26,15,42,22.70
2017,06,26,15,43,22.90
2017,06,26,15,44,23.10
2017,06,26,15,45,23.30
2017,06,26,15,46,23.50
2017,06,26,15,47,23.70
2017,06,26,15,48,23.90
2017,06,26,15,49,24.00
2017,06,26,15,50,24.20
2017,06,26,15,51,24.30
2017,06,26,15,52,24.40
2017,06,26,15,53,24.50
2017,06,26,15,54,24.60
2017,06,26,15,55,24.70
2017,06,26,15,56,24.80
2017,06,26,15,57,24.90
2017,06,26,15,58,24.90
2017,06,26,15,59,24.90
2017,06,26,16,00,24.90
2017,06,26,16,01,24.90
2017,06,26,16,02,24.80
2017,06,26,16,03,24.80
2017,06,26,16,04,24.80
2017,06,26,16,05,24.80
2017,06,26,16,06,24.70
2017,06,26,16,07,24.60
2017,06,26,16,08,24.50
2017,06,26,16,09,24.50
2017,06,26,16,10,24.40
2017,06,26,16,11,24.40
2017,06,26,16,12,24.30
2017,06,26,16,13,24.30
2017,06,26,16,14,24.30
2017,06,26,16,15,24.40
2017,06,26,16,16,24.40
2017,06,26,16,17,24.40
2017,06,26,16,18,24.50
2017,06,26,16,19,24.50
2017,06,26,16,20,24.60
2017,06,26,16,21,24.70
2017,06,26,16,22,24.70
2017,06,26,16,23,24.80
2017,06,26,16,24,24.80
2017,06,26,16,25,24.80
2017,06,26,16,26,24.80
2017,06,26,16,27,24.80
2017,06,26,16,28,24.70
2017,06,26,16,29,24.60
2017,06,26,16,30,24.60
2017,06,26,16,31,24.50
2017,06,26,16,32,24.30
2017,06,26,16,33,24.20
2017,06,26,16,34,24.00
2017,06,26,16,35,23.80
2017,06,26,16,36,23.70
2017,06,26,16,37,23.70
2017,06,26,16,38,23.60
2017,06,26,16,39,23.40
2017,06,26,16,40,23.20
2017,06,26,16,41,23.10
2017,06,26,16,42,23.00
2017,06,26,16,43,22.80
2017,06,26,16,44,22.70
2017,06,26,16,45,22.60
2017,06,26,16,46,22.50
2017,06,26,16,47,22.40
2017,06,26,16,48,22.30
2017,06,26,16,49,22.30
2017,06,26,16,50,22.30
2017,06,26,16,51,22.30
2017,06,26,16,52,22.20
2017,06,26,16,53,22.10
2017,06,26,16,54,22.10
2017,06,26,16,55,22.00
2017,06,26,16,56,21.80
2017,06,26,16,57,21.60
2017,06,26,16,58,21.50
2017,06,26,16,59,21.40
2017,06,26,17,00,21.30
2017,06,26,17,01,21.30
2017,06,26,17,02,21.30
2017,06,26,17,03,21.30
2017,06,26,17,04,21.30
2017,06,26,17,05,21.20
2017,06,26,17,06,21.20
2017,06,26,17,07,21.20
2017,06,26,17,08,21.20
2017,06,26,17,09,21.30
2017,06,26,17,10,21.30
2017,06,26,17,11,21.30
2017,06,26,17,12,21.30
2017,06,26,17,13,21.40
2017,06,26,17,14,21.50
2017,06,26,17,15,21.50
2017,06,26,17,16,21.50
2017,06,26,17,17,21.60
2017,06,26,17,18,21.60
2017,06,26,17,19,21.60